Home   Weather   Newport News   Past weeks

Flag for USA Past Weather in Newport News, Virginia, USA — Yesterday and Last 2 Weeks

Now
72 °F

Partly sunny.


Feels Like: 77 °F
Forecast: 64 / 73 °F
Wind: 7 mph from East

Location: Newport News / Williamsburg International Airport

Current Time: Sep 25, 2016 at 4:59:48 PM

Latest Report: Sep 25, 2016 at 3:54 PM


Visibility: 10 mi

Pressure: 30.14 "Hg

Humidity: 55%

Dew Point: 55 °F

Location of Newport NewsLocation

Past Weather in Newport News — Graph

°F

Newport News Temperature Yesterday

Maximum temperature yesterday: 86 °F (at 12:54 PM)
Minimum temperature yesterday: 65 °F (at 12:54 AM)
Average temperature yesterday: 73 °F

High & Low Weather Summary for the Past Weeks

 TemperatureHumidityPressure
High90 °F (Sep 14, 2:54 PM)100% (Sep 18, 1:54 AM)30.26 "Hg (Sep 18, 1:54 AM)
Low62 °F (Sep 13, 1:54 AM)46% (Sep 13, 2:54 PM)29.96 "Hg (Sep 19, 1:46 PM)
Average75 °F82%30.09 "Hg
* Reported Sep 10 2:54 PM — Sep 25 2:54 PM, Newport News, Weather by CustomWeather, © 2016

Note: Actual official high and low records may vary slightly from our data, if they occured in-between our weather recording intervals... More about our weather records

Advertising

Newport News Weather History for the Previous 24 Hours

Scroll right to see more
 ConditionsComfort  
Time TempWeatherWind HumidityBarometerVisibility
2:54 PM
Sun, Sep 25
73 °FPartly sunny.9 mph55%30.14 "Hg10 mi
1:54 PM73 °FPartly sunny.8 mph59%30.16 "Hg10 mi
12:54 PM73 °FPartly sunny.12 mph64%30.18 "Hg10 mi
11:54 AM70 °FOvercast.10 mph66%30.19 "Hg10 mi
10:54 AM71 °FOvercast.10 mph61%30.18 "Hg10 mi
9:54 AM69 °FOvercast.9 mph63%30.18 "Hg10 mi
8:54 AM68 °FOvercast.6 mph68%30.17 "Hg10 mi
7:54 AM68 °FOvercast.5 mph73%30.17 "Hg10 mi
6:54 AM67 °FOvercast.5 mph79%30.15 "Hg10 mi
5:54 AM68 °FMostly cloudy.5 mph82%30.13 "Hg10 mi
4:54 AM68 °FOvercast.6 mph84%30.13 "Hg10 mi
3:54 AM68 °FMostly cloudy.5 mph84%30.11 "Hg10 mi
2:54 AM68 °FPassing clouds.6 mph87%30.11 "Hg10 mi
1:54 AM69 °FMostly cloudy.9 mph87%30.11 "Hg10 mi
12:54 AM69 °FMostly cloudy.6 mph87%30.11 "Hg10 mi
11:54 PM
Sat, Sep 24
69 °FMostly cloudy.5 mph90%30.11 "Hg10 mi
10:54 PM70 °FMostly cloudy.10 mph87%30.11 "Hg10 mi
9:54 PM71 °FOvercast.10 mph84%30.09 "Hg10 mi
8:54 PM72 °FMostly cloudy.8 mph84%30.08 "Hg10 mi
7:54 PM72 °FOvercast.9 mph84%30.07 "Hg10 mi
6:54 PM73 °FOvercast.9 mph81%30.06 "Hg8 mi
5:54 PM75 °FPartly sunny.7 mph79%30.05 "Hg6 mi
4:54 PM79 °FSunny.10 mph72%30.03 "Hg7 mi
Weather by CustomWeather, © 2016

See weather overviewHow to use our weather pages